Simultaneous Nadir Overpasses (SNOs) Predictions

Prediction of SNOs near equator between NOAA-19 and NPP Satellite Orbit:

Table of predicted SNOs near equator for the next 14.0 days since TLE Epoch: 3/8/2013
Index Date (NOAA-19) Time (NOAA-19) NOAA-19 Lat,Lon Date (NPP) Time (NPP) NPP Lat,Lon Distance(km) Time Diff (sec)
1 03/20/2013 08:09:29 29.95, 76.59 03/20/2013 08:01:08 29.74, 75.60 98.88 501
2 03/20/2013 09:00:33 -29.96,-116.18 03/20/2013 08:51:50 -29.76,-117.08 90.18 523
3 03/20/2013 09:51:34 29.97, 51.07 03/20/2013 09:42:39 29.80, 50.21 85.28 535
4 03/20/2013 10:42:38 -29.98,-141.70 03/20/2013 10:33:21 -29.82,-142.47 76.58 557
5 03/20/2013 11:33:39 29.99, 25.55 03/20/2013 11:24:10 29.86, 24.82 71.73 569
6 03/20/2013 12:24:43 -30.00,-167.22 03/20/2013 12:14:52 -29.88,-167.86 63.03 591
7 03/20/2013 13:15:43
